Regional Weather Roundup
Issued by NWS State College, PA

Home | Current Version | Previous Version | Graphics & Text | Print | Product List | Glossary Off
Versions: 1 2 3 4 5 6 7 8 9 10 11 12 13 14 15 16 17 18 19 20 21 22 23 24 25 26 27 28 29 30 31 32 33 34 35 36 37 38 39 40 41 42 43 44 45 46 47 48 49 50

000
ASUS41 KCTP 021303
RWRCTP

REGIONAL WEATHER ROUNDUP
NATIONAL WEATHER SERVICE STATE COLLEGE PA
900 AM EDT THU JUL 02 2015

Note: "fair" indicates few or no clouds below 12,000 feet with no
significant weather and/or obstructions to visibility.

* = STATION THAT DOES NOT REPORT PRECIPITATION /E.G. RAIN...SNOW...ETC/
    THUNDER OR FOG.

PAZ002>004-007>009-013>016-020>023-029>032-021400-
WESTERN PENNSYLVANIA

CITY           SKY/WX    TMP DP  RH WIND       PRES   REMARKS
ERIE           PTSUNNY   65  57  75 N8        29.97R
MEADVILLE      FOG       59  57  93 NE5       29.99R VSB<1/4
FRANKLIN*      SUNNY     63  55  77 NE5       29.99R
NEW CASTLE     FAIR      66  61  84 CALM      29.97R
BEAVER COUNTY  SUNNY     63  59  88 CALM      29.96R
BUTLER*        PTSUNNY   61  61 100 NE5       29.97S
PITTSBURGH INT CLOUDY    63  59  87 CALM      29.95R FOG
PITTSBURGH     PTSUNNY   65  57  75 CALM      29.94S
INDIANA*       SUNNY     64  61  88 CALM      29.99R
LATROBE        PTSUNNY   66  64  94 CALM      29.96R
WASHINGTON CO* NOT AVBL
$$

PAZ004>006-010>012-017>019-024>028-033>037-041-042-045-046-049>053-021400-
CENTRAL PENNSYLVANIA

CITY           SKY/WX    TMP DP  RH WIND       PRES   REMARKS
BRADFORD       CLOUDY    57  55  93 CALM      29.98S FOG
DUBOIS         PTSUNNY   64  58  80 VRB3      29.97R
CLEARFIELD     PTSUNNY   62  58  86 CALM      29.97R
JOHNSTOWN      MOSUNNY   63  58  83 SW5       29.98R
ALTOONA        SUNNY     64  60  87 CALM      29.97R FOG
STATE COLLEGE  MOSUNNY   64  61  88 CALM      29.96S
WILLIAMSPORT   MOSUNNY   62  58  86 SW5       29.94S
SELINSGROVE    PTSUNNY   67  63  87 N3        29.95R FOG
FT INDIANTOWN  MOSUNNY   72  59  64 VRB5      29.92F
CAPITAL CITY   SUNNY     71  60  68 CALM      29.92S
HARRISBURG     MOSUNNY   70  61  73 W3        29.91F
YORK           MOSUNNY   69  63  81 CALM      29.92F
$$

PAZ038>040-043-044-047-048-054-055-060>062-067>071-021400-
EASTERN PENNSYLVANIA

CITY           SKY/WX    TMP DP  RH WIND       PRES   REMARKS
SCRANTON       MOSUNNY   67  58  72 CALM      29.95R
MOUNT POCONO   MOSUNNY   66  55  67 N5        29.97R
ALLENTOWN      SUNNY     71  62  73 CALM      29.93R
QUAKERTOWN*    MOSUNNY   70  63  78 CALM      29.95R
READING        SUNNY     70  62  76 CALM      29.92R
LANCASTER      MOSUNNY   68  62  81 CALM      29.92S HAZE
COATESVILLE    NOT AVBL
POTTSTOWN      PTSUNNY   68  63  84 CALM      29.94R
BLUE BELL      NOT AVBL
DOYLESTOWN     PTSUNNY   68  62  81 NE3       29.92S
WILLOW GROVE   NOT AVBL
NORTH PHILA    PTSUNNY   73  60  63 NE5       29.93R
PHILADELPHIA   CLOUDY    73  61  65 NE3       29.91S
$$



USA.gov is the U.S. government's official web portal to all federal, state and local government web resources and services.